User: anonymous   Login
Location: Unspecified
(0.0000°N, 0.0000°E)
Time: 21:24:22
(UTC+02:00)
Language:

Atlas Centaur 2 - Orbit

View from above orbital plane
View from above orbital plane
View from above satellite
View from above satellite

Ground track
Ground track

The orbit data is extracted from the following two-line orbital elements,

1   694U 63047A   17141.82082279 +.00000692 +00000-0 +77188-4 0  9993
2   694 030.3577 309.9141 0587802 162.7850 199.3613 14.02074056679397
Epoch (UTC): 21 May 2017 19:41:59
Eccentricity: 0.0587802
inclination: 30.3577°
perigee height: 459 km
apogee height: 1313 km
right ascension of ascending node: 309.9141°
argument of perigee: 162.7850°
revolutions per day: 14.02074056
mean anomaly at epoch: 199.3613°
orbit number at epoch: 67939

The dashed part of the orbit path shows where the satellite is in the earth's shadow,  

DLR